Time,TemperatureF,DewpointF,PressureIn,WindDirection,WindDirectionDegrees,WindSpeedMPH,WindSpeedGustMPH,Humidity,HourlyPrecipIn,Conditions,Clouds,dailyrainin,SoftwareType,DateUTC
2013-10-25 00:00:00,51.5,42.8,30.16,NW,323,3.0,6.0,72,0.00,,-RA,0.00,VWS V14.01,2013-10-25 04:00:00,
2013-10-25 00:01:00,51.5,42.8,30.16,NW,313,3.0,6.0,72,0.00,,-RA,0.00,VWS V14.01,2013-10-25 04:01:00,
2013-10-25 00:06:00,51.7,43.0,30.16,NNW,327,1.0,6.0,72,0.00,,-RA,0.00,VWS V14.01,2013-10-25 04:06:00,
2013-10-25 00:11:00,51.8,43.1,30.16,NW,311,1.0,6.0,72,0.00,,-RA,0.00,VWS V14.01,2013-10-25 04:11:00,
2013-10-25 00:16:00,51.8,43.1,30.16,WNW,292,1.0,6.0,72,0.00,,-RA,0.00,VWS V14.01,2013-10-25 04:16:00,
2013-10-25 00:21:00,51.8,43.1,30.16,WNW,295,1.0,6.0,72,0.00,,-RA,0.00,VWS V14.01,2013-10-25 04:21:00,
2013-10-25 00:26:00,51.6,42.9,30.16,NW,317,1.0,6.0,72,0.00,,-RA,0.00,VWS V14.01,2013-10-25 04:26:00,
2013-10-25 00:31:00,51.5,42.8,30.16,West,268,2.0,6.0,72,0.00,,-RA,0.00,VWS V14.01,2013-10-25 04:31:00,
2013-10-25 00:36:00,51.2,42.9,30.17,West,281,0.0,6.0,73,0.00,,-RA,0.00,VWS V14.01,2013-10-25 04:36:00,
2013-10-25 00:41:00,51.0,43.0,30.17,West,281,0.0,6.0,74,0.00,,-RA,0.00,VWS V14.01,2013-10-25 04:41:00,
2013-10-25 00:46:00,50.7,42.7,30.17,WNW,298,0.0,6.0,74,0.00,,-RA,0.00,VWS V14.01,2013-10-25 04:46:00,
2013-10-25 00:51:00,50.4,42.8,30.17,WNW,298,0.0,6.0,75,0.00,,-RA,0.00,VWS V14.01,2013-10-25 04:51:00,
2013-10-25 00:56:00,50.1,42.8,30.16,WNW,298,0.0,6.0,76,0.00,,-RA,0.00,VWS V14.01,2013-10-25 04:56:00,
2013-10-25 01:01:00,49.8,42.5,30.16,WNW,298,0.0,0.0,76,0.00,,-RA,0.00,VWS V14.01,2013-10-25 05:01:00,
2013-10-25 01:06:00,49.6,42.7,30.16,WNW,298,0.0,1.0,77,0.00,,-RA,0.00,VWS V14.01,2013-10-25 05:06:00,
2013-10-25 01:11:00,49.4,42.5,30.16,WNW,298,0.0,1.0,77,0.00,,-RA,0.00,VWS V14.01,2013-10-25 05:11:00,
2013-10-25 01:16:00,49.1,42.5,30.16,WNW,298,0.0,1.0,78,0.00,,-RA,0.00,VWS V14.01,2013-10-25 05:16:00,
2013-10-25 01:21:00,48.8,42.6,30.16,WNW,298,0.0,1.0,79,0.00,,-RA,0.00,VWS V14.01,2013-10-25 05:21:00,
2013-10-25 01:26:00,48.7,42.5,30.16,WNW,298,1.0,1.0,79,0.00,,-RA,0.00,VWS V14.01,2013-10-25 05:26:00,
2013-10-25 01:31:00,48.6,42.4,30.17,WNW,298,0.0,2.0,79,0.00,,-RA,0.00,VWS V14.01,2013-10-25 05:31:00,
2013-10-25 01:36:00,48.4,42.2,30.17,WNW,298,2.0,2.0,79,0.00,,-RA,0.00,VWS V14.01,2013-10-25 05:36:00,
2013-10-25 01:41:00,48.4,42.5,30.17,NNW,331,2.0,4.0,80,0.00,,-RA,0.00,VWS V14.01,2013-10-25 05:41:00,
2013-10-25 01:46:00,48.6,42.7,30.17,NNW,329,3.0,5.0,80,0.00,,-RA,0.00,VWS V14.01,2013-10-25 05:46:00,
2013-10-25 01:51:00,48.9,42.7,30.17,NW,314,2.0,5.0,79,0.00,,-RA,0.00,VWS V14.01,2013-10-25 05:51:00,
2013-10-25 01:56:00,49.1,42.9,30.17,NW,314,0.0,5.0,79,0.00,,-RA,0.00,VWS V14.01,2013-10-25 05:56:00,
2013-10-25 02:01:00,48.9,42.7,30.17,WNW,294,0.0,1.0,79,0.00,,-RA,0.00,VWS V14.01,2013-10-25 06:01:00,
2013-10-25 02:06:00,48.7,42.5,30.17,NW,317,0.0,3.0,79,0.00,,-RA,0.00,VWS V14.01,2013-10-25 06:06:00,
2013-10-25 02:11:00,48.7,42.5,30.17,NNW,328,1.0,3.0,79,0.00,,-RA,0.00,VWS V14.01,2013-10-25 06:11:00,
2013-10-25 02:16:00,48.8,42.6,30.17,NW,315,1.0,5.0,79,0.00,,-RA,0.00,VWS V14.01,2013-10-25 06:16:00,
2013-10-25 02:21:00,48.9,42.7,30.17,NNW,331,1.0,6.0,79,0.00,,-RA,0.00,VWS V14.01,2013-10-25 06:21:00,
2013-10-25 02:26:00,48.8,42.6,30.17,NNW,336,0.0,6.0,79,0.00,,-RA,0.00,VWS V14.01,2013-10-25 06:26:00,
2013-10-25 02:31:00,48.6,42.4,30.17,NNW,333,0.0,6.0,79,0.00,,-RA,0.00,VWS V14.01,2013-10-25 06:31:00,
2013-10-25 02:36:00,48.3,42.4,30.17,NNW,329,1.0,6.0,80,0.00,,-RA,0.00,VWS V14.01,2013-10-25 06:36:00,
2013-10-25 02:41:00,48.1,42.2,30.17,NNW,331,1.0,6.0,80,0.00,,-RA,0.00,VWS V14.01,2013-10-25 06:41:00,
2013-10-25 02:46:00,48.0,42.1,30.17,NNW,331,0.0,6.0,80,0.00,,-RA,0.00,VWS V14.01,2013-10-25 06:46:00,
2013-10-25 02:51:00,48.0,42.1,30.17,NW,315,0.0,6.0,80,0.00,,-RA,0.00,VWS V14.01,2013-10-25 06:51:00,
2013-10-25 02:56:00,48.2,42.3,30.18,NW,316,2.0,6.0,80,0.00,,-RA,0.00,VWS V14.01,2013-10-25 06:56:00,
2013-10-25 03:01:00,48.2,42.3,30.18,NNW,332,3.0,4.0,80,0.00,,-RA,0.00,VWS V14.01,2013-10-25 07:01:00,
2013-10-25 03:06:00,48.0,42.1,30.18,NNW,331,0.0,4.0,80,0.00,,-RA,0.00,VWS V14.01,2013-10-25 07:06:00,
2013-10-25 03:11:00,47.8,41.9,30.18,NNW,346,1.0,4.0,80,0.00,,-RA,0.00,VWS V14.01,2013-10-25 07:11:00,
2013-10-25 03:16:00,47.2,41.7,30.18,NNW,346,0.0,4.0,81,0.00,,-RA,0.00,VWS V14.01,2013-10-25 07:16:00,
2013-10-25 03:21:00,46.7,41.2,30.19,NNW,346,0.0,4.0,81,0.00,,-RA,0.00,VWS V14.01,2013-10-25 07:21:00,
2013-10-25 03:26:00,46.3,41.1,30.19,North,5,0.0,4.0,82,0.00,,-RA,0.00,VWS V14.01,2013-10-25 07:26:00,
2013-10-25 03:31:00,46.0,41.1,30.19,North,5,0.0,4.0,83,0.00,,-RA,0.00,VWS V14.01,2013-10-25 07:31:00,
2013-10-25 03:36:00,45.8,41.2,30.19,North,5,0.0,4.0,84,0.00,,-RA,0.00,VWS V14.01,2013-10-25 07:36:00,
2013-10-25 03:41:00,45.5,41.0,30.19,North,5,0.0,4.0,84,0.00,,-RA,0.00,VWS V14.01,2013-10-25 07:41:00,
2013-10-25 03:46:00,45.4,40.9,30.19,North,5,0.0,4.0,84,0.00,,-RA,0.00,VWS V14.01,2013-10-25 07:46:00,
2013-10-25 03:51:00,45.2,41.0,30.20,North,5,0.0,4.0,85,0.00,,-RA,0.00,VWS V14.01,2013-10-25 07:51:00,
2013-10-25 03:56:00,45.0,40.8,30.19,North,5,0.0,4.0,85,0.00,,-RA,0.00,VWS V14.01,2013-10-25 07:56:00,
2013-10-25 04:01:00,45.0,40.8,30.20,North,5,0.0,0.0,85,0.00,,-RA,0.00,VWS V14.01,2013-10-25 08:01:00,
2013-10-25 04:06:00,44.6,40.4,30.19,North,5,0.0,1.0,85,0.00,,-RA,0.00,VWS V14.01,2013-10-25 08:06:00,
2013-10-25 04:11:00,44.2,40.3,30.19,North,5,0.0,1.0,86,0.00,,-RA,0.00,VWS V14.01,2013-10-25 08:11:00,
2013-10-25 04:16:00,44.0,40.1,30.20,North,5,0.0,1.0,86,0.00,,-RA,0.00,VWS V14.01,2013-10-25 08:16:00,
2013-10-25 04:21:00,43.8,40.2,30.19,North,5,0.0,1.0,87,0.00,,-RA,0.00,VWS V14.01,2013-10-25 08:21:00,
2013-10-25 04:26:00,43.9,40.3,30.19,North,5,0.0,1.0,87,0.00,,-RA,0.00,VWS V14.01,2013-10-25 08:26:00,
2013-10-25 04:31:00,44.0,40.4,30.19,North,5,0.0,1.0,87,0.00,,-RA,0.00,VWS V14.01,2013-10-25 08:31:00,
2013-10-25 04:36:00,44.0,40.4,30.19,North,5,0.0,1.0,87,0.00,,-RA,0.00,VWS V14.01,2013-10-25 08:36:00,
2013-10-25 04:41:00,43.9,40.3,30.19,North,5,0.0,1.0,87,0.00,,-RA,0.00,VWS V14.01,2013-10-25 08:41:00,
2013-10-25 04:46:00,43.7,40.1,30.19,North,5,0.0,1.0,87,0.00,,-RA,0.00,VWS V14.01,2013-10-25 08:46:00,
2013-10-25 04:51:00,43.3,39.7,30.19,North,5,0.0,1.0,87,0.00,,-RA,0.00,VWS V14.01,2013-10-25 08:51:00,
2013-10-25 04:56:00,43.1,39.8,30.19,North,5,0.0,1.0,88,0.00,,-RA,0.00,VWS V14.01,2013-10-25 08:56:00,
2013-10-25 05:01:00,43.0,40.0,30.20,North,5,0.0,0.0,89,0.00,,-RA,0.00,VWS V14.01,2013-10-25 09:01:00,
2013-10-25 05:06:00,43.0,40.0,30.21,North,5,0.0,1.0,89,0.00,,-RA,0.00,VWS V14.01,2013-10-25 09:06:00,
2013-10-25 05:11:00,42.9,39.9,30.21,North,5,0.0,1.0,89,0.00,,-RA,0.00,VWS V14.01,2013-10-25 09:11:00,
2013-10-25 05:16:00,42.6,39.6,30.21,North,5,0.0,1.0,89,0.00,,-RA,0.00,VWS V14.01,2013-10-25 09:16:00,
2013-10-25 05:21:00,42.0,39.0,30.21,North,5,0.0,1.0,89,0.00,,-RA,0.00,VWS V14.01,2013-10-25 09:21:00,
2013-10-25 05:26:00,41.6,38.9,30.21,North,5,0.0,1.0,90,0.00,,-RA,0.00,VWS V14.01,2013-10-25 09:26:00,
2013-10-25 05:31:00,41.4,38.7,30.21,North,5,0.0,1.0,90,0.00,,-RA,0.00,VWS V14.01,2013-10-25 09:31:00,
2013-10-25 05:36:00,41.1,38.4,30.22,North,5,0.0,1.0,90,0.00,,-RA,0.00,VWS V14.01,2013-10-25 09:36:00,
2013-10-25 05:41:00,40.9,38.2,30.22,North,5,0.0,1.0,90,0.00,,-RA,0.00,VWS V14.01,2013-10-25 09:41:00,
2013-10-25 05:46:00,40.9,38.5,30.22,North,5,0.0,1.0,91,0.00,,-RA,0.00,VWS V14.01,2013-10-25 09:46:00,
2013-10-25 05:51:00,41.0,38.6,30.22,North,5,0.0,1.0,91,0.00,,-RA,0.00,VWS V14.01,2013-10-25 09:51:00,
2013-10-25 05:56:00,41.0,40.2,30.22,North,5,0.0,1.0,97,0.00,,-RA,0.00,VWS V14.01,2013-10-25 09:56:00,
2013-10-25 06:01:00,40.9,38.5,30.23,North,5,0.0,0.0,91,0.00,,-RA,0.00,VWS V14.01,2013-10-25 10:01:00,
2013-10-25 06:06:00,41.0,38.9,30.23,North,5,0.0,0.0,92,0.00,,-RA,0.00,VWS V14.01,2013-10-25 10:06:00,
2013-10-25 06:11:00,40.9,38.8,30.24,North,5,0.0,0.0,92,0.00,,-RA,0.00,VWS V14.01,2013-10-25 10:11:00,
2013-10-25 06:16:00,40.8,38.7,30.24,North,5,0.0,0.0,92,0.00,,-RA,0.00,VWS V14.01,2013-10-25 10:16:00,
2013-10-25 06:21:00,40.6,38.5,30.24,North,5,0.0,0.0,92,0.00,,-RA,0.00,VWS V14.01,2013-10-25 10:21:00,
2013-10-25 06:26:00,40.7,38.6,30.24,North,5,0.0,0.0,92,0.00,,-RA,0.00,VWS V14.01,2013-10-25 10:26:00,
2013-10-25 06:31:00,40.7,38.6,30.25,North,5,0.0,1.0,92,0.00,,-RA,0.00,VWS V14.01,2013-10-25 10:31:00,
2013-10-25 06:36:00,40.7,38.6,30.25,North,5,0.0,1.0,92,0.00,,-RA,0.00,VWS V14.01,2013-10-25 10:36:00,
2013-10-25 06:41:00,40.5,38.4,30.25,NNW,329,2.0,3.0,92,0.00,,-RA,0.00,VWS V14.01,2013-10-25 10:41:00,
2013-10-25 06:46:00,40.8,38.7,30.26,NW,323,0.0,4.0,92,0.00,,-RA,0.00,VWS V14.01,2013-10-25 10:46:00,
2013-10-25 06:51:00,41.0,39.1,30.26,NNW,327,0.0,4.0,93,0.00,,-RA,0.00,VWS V14.01,2013-10-25 10:51:00,
2013-10-25 06:56:00,41.0,38.9,30.26,NNW,327,0.0,4.0,92,0.00,,-RA,0.00,VWS V14.01,2013-10-25 10:56:00,
2013-10-25 07:01:00,40.8,38.7,30.27,NNW,327,0.0,0.0,92,0.00,,-RA,0.00,VWS V14.01,2013-10-25 11:01:00,
2013-10-25 07:06:00,40.7,38.6,30.27,NNW,327,0.0,1.0,92,0.00,,-RA,0.00,VWS V14.01,2013-10-25 11:06:00,
2013-10-25 07:11:00,40.4,38.3,30.27,NNW,327,0.0,1.0,92,0.00,,-RA,0.00,VWS V14.01,2013-10-25 11:11:00,
2013-10-25 07:16:00,40.3,38.2,30.27,NNW,327,0.0,1.0,92,0.00,,-RA,0.00,VWS V14.01,2013-10-25 11:16:00,
2013-10-25 07:21:00,40.1,38.0,30.28,NNW,327,0.0,1.0,92,0.00,,-RA,0.00,VWS V14.01,2013-10-25 11:21:00,
2013-10-25 07:26:00,40.0,37.9,30.28,NNW,327,0.0,1.0,92,0.00,,-RA,0.00,VWS V14.01,2013-10-25 11:26:00,
2013-10-25 07:31:00,39.8,37.7,30.28,NNW,327,0.0,1.0,92,0.00,,-RA,0.00,VWS V14.01,2013-10-25 11:31:00,
2013-10-25 07:36:00,39.7,37.8,30.28,NNW,327,0.0,1.0,93,0.00,,-RA,0.00,VWS V14.01,2013-10-25 11:36:00,
2013-10-25 07:41:00,39.6,37.8,30.28,NNW,327,0.0,1.0,93,0.00,,-RA,0.00,VWS V14.01,2013-10-25 11:41:00,
2013-10-25 07:46:00,39.6,37.8,30.28,NNW,327,0.0,1.0,93,0.00,,-RA,0.00,VWS V14.01,2013-10-25 11:46:00,
2013-10-25 07:51:00,39.6,37.8,30.29,NNW,327,0.0,1.0,93,0.00,,-RA,0.00,VWS V14.01,2013-10-25 11:51:00,
2013-10-25 07:56:00,39.5,37.7,30.29,NNW,327,0.0,1.0,93,0.00,,-RA,0.00,VWS V14.01,2013-10-25 11:56:00,
2013-10-25 08:01:00,39.4,37.5,30.29,NNW,327,0.0,0.0,93,0.00,,-RA,0.00,VWS V14.01,2013-10-25 12:01:00,
2013-10-25 08:06:00,39.5,37.7,30.29,NNW,327,0.0,2.0,93,0.00,,-RA,0.00,VWS V14.01,2013-10-25 12:06:00,
2013-10-25 08:11:00,39.7,38.1,30.30,NNW,327,0.0,2.0,94,0.00,,-RA,0.00,VWS V14.01,2013-10-25 12:11:00,
2013-10-25 08:16:00,40.0,38.1,30.30,NNW,327,0.0,2.0,93,0.00,,-RA,0.00,VWS V14.01,2013-10-25 12:16:00,
2013-10-25 08:21:00,40.3,38.7,30.30,NNW,327,0.0,2.0,94,0.00,,-RA,0.00,VWS V14.01,2013-10-25 12:21:00,
2013-10-25 08:26:00,40.7,39.1,30.30,NNW,327,0.0,2.0,94,0.00,,-RA,0.00,VWS V14.01,2013-10-25 12:26:00,
2013-10-25 08:31:00,40.9,39.3,30.30,NNW,327,0.0,2.0,94,0.00,,-RA,0.00,VWS V14.01,2013-10-25 12:31:00,
2013-10-25 08:36:00,41.0,39.1,30.31,NNW,327,0.0,2.0,93,0.00,,-RA,0.00,VWS V14.01,2013-10-25 12:36:00,
2013-10-25 08:41:00,41.0,39.1,30.31,NNW,327,0.0,2.0,93,0.00,,-RA,0.00,VWS V14.01,2013-10-25 12:41:00,
2013-10-25 08:46:00,41.1,39.2,30.31,NNW,327,0.0,2.0,93,0.00,,-RA,0.00,VWS V14.01,2013-10-25 12:46:00,
2013-10-25 08:51:00,41.2,39.3,30.31,NNW,327,0.0,2.0,93,0.00,,-RA,0.00,VWS V14.01,2013-10-25 12:51:00,
2013-10-25 08:56:00,41.3,39.4,30.32,NNW,327,1.0,2.0,93,0.00,,-RA,0.00,VWS V14.01,2013-10-25 12:56:00,
2013-10-25 09:01:00,41.5,39.3,30.32,NNW,327,0.0,2.0,92,0.00,,-RA,0.00,VWS V14.01,2013-10-25 13:01:00,
2013-10-25 09:06:00,41.7,39.5,30.32,NNW,327,1.0,3.0,92,0.00,,-RA,0.00,VWS V14.01,2013-10-25 13:06:00,
2013-10-25 09:11:00,42.1,40.0,30.33,North,5,0.0,3.0,92,0.00,,-RA,0.00,VWS V14.01,2013-10-25 13:11:00,
2013-10-25 09:16:00,42.5,40.3,30.32,North,350,0.0,3.0,92,0.00,,-RA,0.00,VWS V14.01,2013-10-25 13:16:00,
2013-10-25 09:21:00,43.0,40.8,30.33,North,355,0.0,4.0,92,0.00,,-RA,0.00,VWS V14.01,2013-10-25 13:21:00,
2013-10-25 09:26:00,43.3,40.8,30.33,North,350,3.0,5.0,91,0.00,,-RA,0.00,VWS V14.01,2013-10-25 13:26:00,
2013-10-25 09:31:00,43.8,41.1,30.33,NNW,345,3.0,5.0,90,0.00,,-RA,0.00,VWS V14.01,2013-10-25 13:31:00,
2013-10-25 09:36:00,44.3,41.6,30.33,NNW,342,0.0,5.0,90,0.00,,-RA,0.00,VWS V14.01,2013-10-25 13:36:00,
2013-10-25 09:41:00,45.0,42.0,30.33,NNE,23,1.0,6.0,89,0.00,,-RA,0.00,VWS V14.01,2013-10-25 13:41:00,
2013-10-25 09:46:00,45.6,42.0,30.33,ENE,65,2.0,6.0,87,0.00,,-RA,0.00,VWS V14.01,2013-10-25 13:46:00,
2013-10-25 09:51:00,46.1,41.8,30.33,ENE,59,1.0,10.0,85,0.00,,-RA,0.00,VWS V14.01,2013-10-25 13:51:00,
2013-10-25 09:56:00,46.5,41.6,30.33,NNE,17,2.0,10.0,83,0.00,,-RA,0.00,VWS V14.01,2013-10-25 13:56:00,
2013-10-25 10:01:00,47.0,41.8,30.33,NNW,348,0.0,5.0,82,0.00,,-RA,0.00,VWS V14.01,2013-10-25 14:01:00,
2013-10-25 10:06:00,47.6,42.1,30.33,ESE,118,3.0,5.0,81,0.00,,-RA,0.00,VWS V14.01,2013-10-25 14:06:00,
2013-10-25 10:11:00,48.2,42.3,30.33,ENE,58,3.0,7.0,80,0.00,,-RA,0.00,VWS V14.01,2013-10-25 14:11:00,
2013-10-25 10:16:00,48.3,41.4,30.33,East,89,6.0,14.0,77,0.00,,-RA,0.00,VWS V14.01,2013-10-25 14:16:00,
2013-10-25 10:21:00,48.8,41.6,30.33,ENE,62,8.0,14.0,76,0.00,,-RA,0.00,VWS V14.01,2013-10-25 14:21:00,
2013-10-25 10:26:00,49.2,41.3,30.33,ENE,70,5.0,14.0,74,0.00,,-RA,0.00,VWS V14.01,2013-10-25 14:26:00,
2013-10-25 10:31:00,49.7,41.8,30.33,NNE,22,6.0,14.0,74,0.00,,-RA,0.00,VWS V14.01,2013-10-25 14:31:00,
2013-10-25 10:36:00,50.1,41.4,30.32,NE,36,6.0,14.0,72,0.00,,-RA,0.00,VWS V14.01,2013-10-25 14:36:00,
2013-10-25 10:41:00,50.4,41.7,30.32,NNE,25,9.0,14.0,72,0.00,,-RA,0.00,VWS V14.01,2013-10-25 14:41:00,
2013-10-25 10:46:00,50.6,41.2,30.32,NE,37,6.0,14.0,70,0.00,,-RA,0.00,VWS V14.01,2013-10-25 14:46:00,
2013-10-25 10:51:00,50.8,41.0,30.32,NE,38,6.0,14.0,69,0.00,,-RA,0.00,VWS V14.01,2013-10-25 14:51:00,
2013-10-25 10:56:00,51.1,40.5,30.33,ENE,61,6.0,16.0,67,0.00,,-RA,0.00,VWS V14.01,2013-10-25 14:56:00,
2013-10-25 11:01:00,50.8,39.1,30.33,NE,49,9.0,15.0,64,0.00,,-RA,0.00,VWS V14.01,2013-10-25 15:01:00,
2013-10-25 11:06:00,51.0,39.7,30.33,ENE,72,2.0,15.0,65,0.00,,-RA,0.00,VWS V14.01,2013-10-25 15:06:00,
2013-10-25 11:11:00,51.4,40.0,30.33,North,350,2.0,15.0,65,0.00,,-RA,0.00,VWS V14.01,2013-10-25 15:11:00,
2013-10-25 11:16:00,51.7,39.9,30.33,ENE,76,4.0,15.0,64,0.00,,-RA,0.00,VWS V14.01,2013-10-25 15:16:00,
2013-10-25 11:21:00,51.7,40.3,30.33,NNE,28,11.0,15.0,65,0.00,,-RA,0.00,VWS V14.01,2013-10-25 15:21:00,
2013-10-25 11:26:00,51.9,39.7,30.33,North,9,2.0,15.0,63,0.00,,-RA,0.00,VWS V14.01,2013-10-25 15:26:00,
2013-10-25 11:31:00,52.4,39.8,30.33,ENE,74,8.0,15.0,62,0.00,,-RA,0.00,VWS V14.01,2013-10-25 15:31:00,
2013-10-25 11:36:00,52.4,39.8,30.33,East,96,3.0,15.0,62,0.00,,-RA,0.00,VWS V14.01,2013-10-25 15:36:00,
2013-10-25 11:41:00,52.6,39.5,30.33,NW,321,8.0,15.0,61,0.00,,-RA,0.00,VWS V14.01,2013-10-25 15:41:00,
2013-10-25 11:46:00,53.2,40.5,30.33,ENE,69,4.0,15.0,62,0.00,,-RA,0.00,VWS V14.01,2013-10-25 15:46:00,
2013-10-25 11:51:00,53.6,40.1,30.33,ENE,70,4.0,15.0,60,0.00,,-RA,0.00,VWS V14.01,2013-10-25 15:51:00,
2013-10-25 11:56:00,53.4,39.9,30.33,North,355,3.0,15.0,60,0.00,,-RA,0.00,VWS V14.01,2013-10-25 15:56:00,
2013-10-25 12:01:00,53.3,39.8,30.33,NNE,24,7.0,10.0,60,0.00,,-RA,0.00,VWS V14.01,2013-10-25 16:01:00,
2013-10-25 12:06:00,53.5,39.5,30.33,North,349,1.0,10.0,59,0.00,,-RA,0.00,VWS V14.01,2013-10-25 16:06:00,
2013-10-25 12:11:00,53.6,40.1,30.33,NNE,22,2.0,11.0,60,0.00,,-RA,0.00,VWS V14.01,2013-10-25 16:11:00,
2013-10-25 12:16:00,54.0,40.9,30.33,North,5,1.0,11.0,61,0.00,,-RA,0.00,VWS V14.01,2013-10-25 16:16:00,
2013-10-25 12:21:00,53.6,40.1,30.33,NNE,15,2.0,11.0,60,0.00,,-RA,0.00,VWS V14.01,2013-10-25 16:21:00,
2013-10-25 12:26:00,53.5,40.0,30.33,ENE,70,3.0,11.0,60,0.00,,-RA,0.00,VWS V14.01,2013-10-25 16:26:00,
2013-10-25 12:31:00,53.6,40.1,30.33,ENE,75,1.0,11.0,60,0.00,,-RA,0.00,VWS V14.01,2013-10-25 16:31:00,
2013-10-25 12:36:00,54.4,40.4,30.33,NNW,344,6.0,11.0,59,0.00,,-RA,0.00,VWS V14.01,2013-10-25 16:36:00,
2013-10-25 12:41:00,54.7,40.2,30.33,NNW,336,2.0,11.0,58,0.00,,-RA,0.00,VWS V14.01,2013-10-25 16:41:00,
2013-10-25 12:46:00,54.9,40.4,30.32,NNE,14,3.0,11.0,58,0.00,,-RA,0.00,VWS V14.01,2013-10-25 16:46:00,
2013-10-25 12:51:00,55.0,40.5,30.32,NNW,331,5.0,11.0,58,0.00,,-RA,0.00,VWS V14.01,2013-10-25 16:51:00,
2013-10-25 12:56:00,55.1,40.6,30.32,NW,321,9.0,11.0,58,0.00,,-RA,0.00,VWS V14.01,2013-10-25 16:56:00,
2013-10-25 13:02:00,54.6,39.7,30.32,NNW,327,10.0,10.0,57,0.00,,-RA,0.00,VWS V14.01,2013-10-25 17:02:00,
2013-10-25 13:07:00,54.8,39.0,30.32,West,279,0.0,10.0,55,0.00,,-RA,0.00,VWS V14.01,2013-10-25 17:07:00,
2013-10-25 13:12:00,55.3,39.0,30.32,WNW,300,2.0,10.0,54,0.00,,-RA,0.00,VWS V14.01,2013-10-25 17:12:00,
2013-10-25 13:17:00,55.3,39.0,30.31,NE,36,2.0,10.0,54,0.00,,-RA,0.00,VWS V14.01,2013-10-25 17:17:00,
2013-10-25 13:22:00,54.8,39.0,30.32,ENE,64,1.0,10.0,55,0.00,,-RA,0.00,VWS V14.01,2013-10-25 17:22:00,
2013-10-25 13:27:00,54.9,38.6,30.31,NW,318,5.0,10.0,54,0.00,,-RA,0.00,VWS V14.01,2013-10-25 17:27:00,
2013-10-25 13:32:00,55.4,39.0,30.31,NE,37,5.0,11.0,54,0.00,,-RA,0.00,VWS V14.01,2013-10-25 17:32:00,
2013-10-25 13:38:00,56.2,39.3,30.31,NW,321,7.0,11.0,53,0.00,,-RA,0.00,VWS V14.01,2013-10-25 17:38:00,
2013-10-25 13:43:00,56.2,38.8,30.31,NW,317,4.0,11.0,52,0.00,,-RA,0.00,VWS V14.01,2013-10-25 17:43:00,
2013-10-25 13:48:00,56.3,37.9,30.30,NW,311,5.0,11.0,50,0.00,,-RA,0.00,VWS V14.01,2013-10-25 17:48:00,
2013-10-25 13:53:00,56.3,37.9,30.30,NNW,329,5.0,11.0,50,0.00,,-RA,0.00,VWS V14.01,2013-10-25 17:53:00,
2013-10-25 13:58:00,56.5,39.1,30.30,North,351,6.0,11.0,52,0.00,,-RA,0.00,VWS V14.01,2013-10-25 17:58:00,
2013-10-25 14:03:00,56.5,38.6,30.30,NNW,333,4.0,11.0,51,0.00,,-RA,0.00,VWS V14.01,2013-10-25 18:03:00,
2013-10-25 14:08:00,56.1,38.2,30.30,NNE,31,0.0,12.0,51,0.00,,-RA,0.00,VWS V14.01,2013-10-25 18:08:00,
2013-10-25 14:13:00,55.9,38.0,30.29,NE,36,1.0,12.0,51,0.00,,-RA,0.00,VWS V14.01,2013-10-25 18:13:00,
2013-10-25 14:18:00,56.5,38.1,30.29,NE,48,5.0,12.0,50,0.00,,-RA,0.00,VWS V14.01,2013-10-25 18:18:00,
2013-10-25 14:23:00,56.4,37.5,30.29,NNW,344,2.0,12.0,49,0.00,,-RA,0.00,VWS V14.01,2013-10-25 18:23:00,
2013-10-25 14:28:00,55.9,37.0,30.29,WNW,292,3.0,12.0,49,0.00,,-RA,0.00,VWS V14.01,2013-10-25 18:28:00,
2013-10-25 14:33:00,56.2,37.8,30.29,West,271,0.0,12.0,50,0.00,,-RA,0.00,VWS V14.01,2013-10-25 18:33:00,
2013-10-25 14:38:00,56.7,37.8,30.29,NNW,330,5.0,12.0,49,0.00,,-RA,0.00,VWS V14.01,2013-10-25 18:38:00,
2013-10-25 14:43:00,57.0,37.5,30.29,NNE,17,2.0,12.0,48,0.00,,-RA,0.00,VWS V14.01,2013-10-25 18:43:00,
2013-10-25 14:48:00,57.1,37.6,30.29,ENE,71,4.0,12.0,48,0.00,,-RA,0.00,VWS V14.01,2013-10-25 18:48:00,
2013-10-25 14:53:00,57.2,36.6,30.29,ENE,71,1.0,12.0,46,0.00,,-RA,0.00,VWS V14.01,2013-10-25 18:53:00,
2013-10-25 14:58:00,57.5,36.9,30.28,WNW,302,3.0,12.0,46,0.00,,-RA,0.00,VWS V14.01,2013-10-25 18:58:00,
2013-10-25 15:03:00,57.6,37.0,30.29,NNE,17,0.0,7.0,46,0.00,,-RA,0.00,VWS V14.01,2013-10-25 19:03:00,
2013-10-25 15:08:00,57.6,37.0,30.28,WNW,292,0.0,7.0,46,0.00,,-RA,0.00,VWS V14.01,2013-10-25 19:08:00,
2013-10-25 15:13:00,57.6,36.4,30.29,North,355,3.0,13.0,45,0.00,,-RA,0.00,VWS V14.01,2013-10-25 19:13:00,
2013-10-25 15:18:00,57.7,36.0,30.28,NW,315,5.0,13.0,44,0.00,,-RA,0.00,VWS V14.01,2013-10-25 19:18:00,
2013-10-25 15:23:00,57.5,36.3,30.28,WNW,283,8.0,13.0,45,0.00,,-RA,0.00,VWS V14.01,2013-10-25 19:23:00,
2013-10-25 15:28:00,57.7,37.1,30.29,ENE,59,2.0,13.0,46,0.00,,-RA,0.00,VWS V14.01,2013-10-25 19:28:00,
2013-10-25 15:33:00,57.8,36.6,30.28,ENE,74,10.0,13.0,45,0.00,,-RA,0.00,VWS V14.01,2013-10-25 19:33:00,
2013-10-25 15:38:00,57.3,36.2,30.28,East,96,1.0,13.0,45,0.00,,-RA,0.00,VWS V14.01,2013-10-25 19:38:00,
2013-10-25 15:43:00,57.5,36.9,30.28,North,355,0.0,13.0,46,0.00,,-RA,0.00,VWS V14.01,2013-10-25 19:43:00,
2013-10-25 15:48:00,58.4,37.7,30.28,ENE,74,0.0,13.0,46,0.00,,-RA,0.00,VWS V14.01,2013-10-25 19:48:00,
2013-10-25 15:53:00,58.4,36.6,30.29,NNW,336,9.0,13.0,44,0.00,,-RA,0.00,VWS V14.01,2013-10-25 19:53:00,
2013-10-25 15:58:00,58.1,36.3,30.29,ENE,64,0.0,13.0,44,0.00,,-RA,0.00,VWS V14.01,2013-10-25 19:58:00,
2013-10-25 16:03:00,58.2,36.4,30.29,North,11,3.0,6.0,44,0.00,,-RA,0.00,VWS V14.01,2013-10-25 20:03:00,
2013-10-25 16:08:00,58.0,36.8,30.29,NE,34,8.0,12.0,45,0.00,,-RA,0.00,VWS V14.01,2013-10-25 20:08:00,
2013-10-25 16:13:00,57.5,36.3,30.29,NNE,30,0.0,12.0,45,0.00,,-RA,0.00,VWS V14.01,2013-10-25 20:13:00,
2013-10-25 16:18:00,57.5,36.3,30.29,NNW,333,0.0,12.0,45,0.00,,-RA,0.00,VWS V14.01,2013-10-25 20:18:00,
2013-10-25 16:23:00,57.6,35.9,30.29,North,351,6.0,13.0,44,0.00,,-RA,0.00,VWS V14.01,2013-10-25 20:23:00,
2013-10-25 16:28:00,57.4,36.2,30.29,NW,317,1.0,13.0,45,0.00,,-RA,0.00,VWS V14.01,2013-10-25 20:28:00,
2013-10-25 16:33:00,57.6,35.9,30.29,NE,49,1.0,13.0,44,0.00,,-RA,0.00,VWS V14.01,2013-10-25 20:33:00,
2013-10-25 16:38:00,57.7,35.4,30.29,NW,319,0.0,13.0,43,0.00,,-RA,0.00,VWS V14.01,2013-10-25 20:38:00,
2013-10-25 16:43:00,57.8,36.6,30.29,NW,317,5.0,13.0,45,0.00,,-RA,0.00,VWS V14.01,2013-10-25 20:43:00,
2013-10-25 16:48:00,57.7,36.5,30.29,NE,37,0.0,13.0,45,0.00,,-RA,0.00,VWS V14.01,2013-10-25 20:48:00,
2013-10-25 16:53:00,57.4,35.7,30.29,ENE,69,0.0,13.0,44,0.00,,-RA,0.00,VWS V14.01,2013-10-25 20:53:00,
2013-10-25 16:58:00,57.4,35.7,30.29,North,9,3.0,13.0,44,0.00,,-RA,0.00,VWS V14.01,2013-10-25 20:58:00,
2013-10-25 17:03:00,57.4,35.7,30.29,NE,45,0.0,4.0,44,0.00,,-RA,0.00,VWS V14.01,2013-10-25 21:03:00,
2013-10-25 17:08:00,57.3,36.2,30.29,ENE,77,0.0,5.0,45,0.00,,-RA,0.00,VWS V14.01,2013-10-25 21:08:00,
2013-10-25 17:13:00,57.4,36.2,30.29,NNW,336,2.0,8.0,45,0.00,,-RA,0.00,VWS V14.01,2013-10-25 21:13:00,
2013-10-25 17:18:00,57.2,36.1,30.29,NE,39,1.0,8.0,45,0.00,,-RA,0.00,VWS V14.01,2013-10-25 21:18:00,
2013-10-25 17:23:00,57.0,36.4,30.29,NW,323,1.0,8.0,46,0.00,,-RA,0.00,VWS V14.01,2013-10-25 21:23:00,
2013-10-25 17:28:00,57.1,37.1,30.29,NNE,32,3.0,8.0,47,0.00,,-RA,0.00,VWS V14.01,2013-10-25 21:28:00,
2013-10-25 17:33:00,56.9,35.8,30.29,NNW,345,3.0,8.0,45,0.00,,-RA,0.00,VWS V14.01,2013-10-25 21:33:00,
2013-10-25 17:38:00,56.6,35.5,30.29,NNE,19,10.0,10.0,45,0.00,,-RA,0.00,VWS V14.01,2013-10-25 21:38:00,
2013-10-25 17:43:00,56.4,35.9,30.29,NNE,14,2.0,10.0,46,0.00,,-RA,0.00,VWS V14.01,2013-10-25 21:43:00,
2013-10-25 17:48:00,56.1,35.6,30.30,NNE,31,2.0,10.0,46,0.00,,-RA,0.00,VWS V14.01,2013-10-25 21:48:00,
2013-10-25 17:53:00,55.8,35.9,30.30,NE,44,0.0,10.0,47,0.00,,-RA,0.00,VWS V14.01,2013-10-25 21:53:00,
2013-10-25 17:58:00,55.7,35.8,30.30,ENE,69,3.0,10.0,47,0.00,,-RA,0.00,VWS V14.01,2013-10-25 21:58:00,
2013-10-25 18:03:00,55.3,35.4,30.30,NNE,26,0.0,7.0,47,0.00,,-RA,0.00,VWS V14.01,2013-10-25 22:03:00,
2013-10-25 18:08:00,55.1,34.7,30.30,NNE,20,1.0,7.0,46,0.00,,-RA,0.00,VWS V14.01,2013-10-25 22:08:00,
2013-10-25 18:13:00,54.8,35.0,30.30,NNE,27,2.0,7.0,47,0.00,,-RA,0.00,VWS V14.01,2013-10-25 22:13:00,
2013-10-25 18:18:00,54.6,35.3,30.30,ENE,75,1.0,7.0,48,0.00,,-RA,0.00,VWS V14.01,2013-10-25 22:18:00,
2013-10-25 18:23:00,54.3,35.0,30.30,NNE,31,0.0,7.0,48,0.00,,-RA,0.00,VWS V14.01,2013-10-25 22:23:00,
2013-10-25 18:28:00,53.9,35.2,30.30,NNE,31,0.0,7.0,49,0.00,,-RA,0.00,VWS V14.01,2013-10-25 22:28:00,
2013-10-25 18:33:00,53.4,35.2,30.31,NNE,31,0.0,7.0,50,0.00,,-RA,0.00,VWS V14.01,2013-10-25 22:33:00,
2013-10-25 18:38:00,53.0,35.4,30.31,NNE,31,0.0,7.0,51,0.00,,-RA,0.00,VWS V14.01,2013-10-25 22:38:00,
2013-10-25 18:43:00,52.5,35.9,30.31,NNE,31,0.0,7.0,53,0.00,,-RA,0.00,VWS V14.01,2013-10-25 22:43:00,
2013-10-25 18:48:00,52.1,36.0,30.31,NNE,31,0.0,7.0,54,0.00,,-RA,0.00,VWS V14.01,2013-10-25 22:48:00,
2013-10-25 18:53:00,51.7,36.1,30.31,NNE,31,0.0,7.0,55,0.00,,-RA,0.00,VWS V14.01,2013-10-25 22:53:00,
2013-10-25 18:58:00,51.3,35.7,30.32,NE,38,0.0,7.0,55,0.00,,-RA,0.00,VWS V14.01,2013-10-25 22:58:00,
2013-10-25 19:03:00,50.8,35.7,30.32,NE,38,0.0,1.0,56,0.00,,-RA,0.00,VWS V14.01,2013-10-25 23:03:00,
2013-10-25 19:08:00,50.4,35.8,30.32,NE,38,0.0,1.0,57,0.00,,-RA,0.00,VWS V14.01,2013-10-25 23:08:00,
2013-10-25 19:13:00,50.0,35.4,30.32,NE,38,0.0,1.0,57,0.00,,-RA,0.00,VWS V14.01,2013-10-25 23:13:00,
2013-10-25 19:18:00,49.6,35.5,30.32,NE,38,0.0,1.0,58,0.00,,-RA,0.00,VWS V14.01,2013-10-25 23:18:00,
2013-10-25 19:23:00,49.2,35.5,30.32,NE,38,0.0,1.0,59,0.00,,-RA,0.00,VWS V14.01,2013-10-25 23:23:00,
2013-10-25 19:28:00,48.8,35.1,30.32,NE,38,0.0,1.0,59,0.00,,-RA,0.00,VWS V14.01,2013-10-25 23:28:00,
2013-10-25 19:33:00,48.6,35.4,30.32,NE,38,0.0,1.0,60,0.00,,-RA,0.00,VWS V14.01,2013-10-25 23:33:00,
2013-10-25 19:38:00,48.2,35.4,30.32,NE,38,0.0,1.0,61,0.00,,-RA,0.00,VWS V14.01,2013-10-25 23:38:00,
2013-10-25 19:43:00,47.8,36.2,30.33,NE,38,0.0,1.0,64,0.00,,-RA,0.00,VWS V14.01,2013-10-25 23:43:00,
2013-10-25 19:48:00,47.2,36.0,30.33,NE,38,0.0,1.0,65,0.00,,-RA,0.00,VWS V14.01,2013-10-25 23:48:00,
2013-10-25 19:53:00,46.7,36.0,30.33,NE,38,0.0,1.0,66,0.00,,-RA,0.00,VWS V14.01,2013-10-25 23:53:00,
2013-10-25 19:58:00,46.3,36.0,30.33,NE,38,0.0,1.0,67,0.00,,-RA,0.00,VWS V14.01,2013-10-25 23:58:00,
2013-10-25 20:03:00,45.9,36.0,30.33,NE,38,0.0,0.0,68,0.00,,-RA,0.00,VWS V14.01,2013-10-26 00:03:00,
2013-10-25 20:08:00,45.5,35.9,30.33,NE,38,0.0,0.0,69,0.00,,-RA,0.00,VWS V14.01,2013-10-26 00:08:00,
2013-10-25 20:13:00,45.1,35.5,30.33,NE,38,0.0,0.0,69,0.00,,-RA,0.00,VWS V14.01,2013-10-26 00:13:00,
2013-10-25 20:18:00,44.9,36.1,30.34,NE,38,0.0,0.0,71,0.00,,-RA,0.00,VWS V14.01,2013-10-26 00:18:00,
2013-10-25 20:23:00,44.5,36.0,30.33,NE,38,0.0,0.0,72,0.00,,-RA,0.00,VWS V14.01,2013-10-26 00:23:00,
2013-10-25 20:28:00,44.2,35.8,30.34,NE,38,0.0,0.0,72,0.00,,-RA,0.00,VWS V14.01,2013-10-26 00:28:00,
2013-10-25 20:33:00,43.8,35.4,30.34,NE,38,0.0,0.0,72,0.00,,-RA,0.00,VWS V14.01,2013-10-26 00:33:00,
2013-10-25 20:38:00,43.6,35.5,30.34,NE,38,0.0,0.0,73,0.00,,-RA,0.00,VWS V14.01,2013-10-26 00:38:00,
2013-10-25 20:43:00,43.3,35.2,30.35,NE,38,0.0,0.0,73,0.00,,-RA,0.00,VWS V14.01,2013-10-26 00:43:00,
2013-10-25 20:48:00,43.1,35.4,30.35,NE,38,0.0,0.0,74,0.00,,-RA,0.00,VWS V14.01,2013-10-26 00:48:00,
2013-10-25 20:53:00,42.9,35.2,30.35,NE,38,0.0,0.0,74,0.00,,-RA,0.00,VWS V14.01,2013-10-26 00:53:00,
2013-10-25 20:58:00,42.5,34.8,30.35,NE,38,0.0,0.0,74,0.00,,-RA,0.00,VWS V14.01,2013-10-26 00:58:00,
2013-10-25 21:03:00,42.2,34.9,30.35,NE,38,0.0,0.0,75,0.00,,-RA,0.00,VWS V14.01,2013-10-26 01:03:00,
2013-10-25 21:08:00,42.2,34.9,30.35,NE,38,0.0,0.0,75,0.00,,-RA,0.00,VWS V14.01,2013-10-26 01:08:00,
2013-10-25 21:13:00,42.2,34.9,30.35,NE,38,0.0,0.0,75,0.00,,-RA,0.00,VWS V14.01,2013-10-26 01:13:00,
2013-10-25 21:18:00,42.0,35.0,30.35,NE,38,0.0,0.0,76,0.00,,-RA,0.00,VWS V14.01,2013-10-26 01:18:00,
2013-10-25 21:23:00,41.7,34.7,30.35,NE,38,0.0,0.0,76,0.00,,-RA,0.00,VWS V14.01,2013-10-26 01:23:00,
2013-10-25 21:28:00,41.5,34.8,30.35,NE,38,0.0,0.0,77,0.00,,-RA,0.00,VWS V14.01,2013-10-26 01:28:00,
2013-10-25 21:33:00,41.2,34.9,30.35,NE,38,0.0,0.0,78,0.00,,-RA,0.00,VWS V14.01,2013-10-26 01:33:00,
2013-10-25 21:38:00,41.0,34.7,30.35,NE,38,0.0,0.0,78,0.00,,-RA,0.00,VWS V14.01,2013-10-26 01:38:00,
2013-10-25 21:43:00,40.9,34.6,30.35,NE,38,0.0,0.0,78,0.00,,-RA,0.00,VWS V14.01,2013-10-26 01:43:00,
2013-10-25 21:48:00,40.7,34.7,30.36,NE,38,0.0,0.0,79,0.00,,-RA,0.00,VWS V14.01,2013-10-26 01:48:00,
2013-10-25 21:53:00,40.4,34.7,30.36,NE,38,0.0,0.0,80,0.00,,-RA,0.00,VWS V14.01,2013-10-26 01:53:00,
2013-10-25 21:58:00,40.1,34.4,30.36,NE,38,0.0,0.0,80,0.00,,-RA,0.00,VWS V14.01,2013-10-26 01:58:00,
2013-10-25 22:03:00,40.0,34.7,30.36,NE,38,0.0,0.0,81,0.00,,-RA,0.00,VWS V14.01,2013-10-26 02:03:00,
2013-10-25 22:08:00,39.8,34.5,30.36,NE,38,0.0,0.0,81,0.00,,-RA,0.00,VWS V14.01,2013-10-26 02:08:00,
2013-10-25 22:13:00,39.8,34.5,30.37,NE,38,0.0,0.0,81,0.00,,-RA,0.00,VWS V14.01,2013-10-26 02:13:00,
2013-10-25 22:18:00,39.8,34.5,30.37,NE,38,0.0,0.0,81,0.00,,-RA,0.00,VWS V14.01,2013-10-26 02:18:00,
2013-10-25 22:23:00,39.7,34.4,30.37,NE,38,0.0,0.0,81,0.00,,-RA,0.00,VWS V14.01,2013-10-26 02:23:00,
2013-10-25 22:28:00,39.6,34.6,30.37,NE,38,0.0,0.0,82,0.00,,-RA,0.00,VWS V14.01,2013-10-26 02:28:00,
2013-10-25 22:33:00,39.2,34.2,30.36,NE,38,0.0,0.0,82,0.00,,-RA,0.00,VWS V14.01,2013-10-26 02:33:00,
2013-10-25 22:38:00,38.4,33.7,30.36,NE,38,0.0,2.0,83,0.00,,-RA,0.00,VWS V14.01,2013-10-26 02:38:00,
2013-10-25 22:43:00,37.9,33.5,30.37,NE,38,0.0,2.0,84,0.00,,-RA,0.00,VWS V14.01,2013-10-26 02:43:00,
2013-10-25 22:48:00,37.7,33.6,30.37,NE,38,0.0,2.0,85,0.00,,-RA,0.00,VWS V14.01,2013-10-26 02:48:00,
2013-10-25 22:53:00,37.8,33.7,30.37,NE,38,0.0,2.0,85,0.00,,-RA,0.00,VWS V14.01,2013-10-26 02:53:00,
2013-10-25 22:58:00,37.9,33.8,30.37,NE,38,0.0,2.0,85,0.00,,-RA,0.00,VWS V14.01,2013-10-26 02:58:00,
2013-10-25 23:03:00,38.4,34.3,30.37,NE,38,1.0,2.0,85,0.00,,-RA,0.00,VWS V14.01,2013-10-26 03:03:00,
2013-10-25 23:08:00,39.3,34.6,30.36,NE,39,0.0,2.0,83,0.00,,-RA,0.00,VWS V14.01,2013-10-26 03:08:00,
2013-10-25 23:13:00,39.9,34.5,30.36,NE,39,1.0,2.0,81,0.00,,-RA,0.00,VWS V14.01,2013-10-26 03:13:00,
2013-10-25 23:18:00,40.4,34.7,30.37,NE,39,0.0,2.0,80,0.00,,-RA,0.00,VWS V14.01,2013-10-26 03:18:00,
2013-10-25 23:23:00,40.6,34.3,30.36,NE,39,0.0,2.0,78,0.00,,-RA,0.00,VWS V14.01,2013-10-26 03:23:00,
2013-10-25 23:28:00,40.6,34.3,30.36,NE,39,0.0,2.0,78,0.00,,-RA,0.00,VWS V14.01,2013-10-26 03:28:00,
2013-10-25 23:33:00,40.7,34.4,30.36,NE,39,1.0,2.0,78,0.00,,-RA,0.00,VWS V14.01,2013-10-26 03:33:00,
2013-10-25 23:38:00,40.7,34.1,30.36,NE,39,0.0,2.0,77,0.00,,-RA,0.00,VWS V14.01,2013-10-26 03:38:00,
2013-10-25 23:43:00,40.7,34.1,30.36,NE,39,0.0,2.0,77,0.00,,-RA,0.00,VWS V14.01,2013-10-26 03:43:00,
2013-10-25 23:48:00,40.6,34.3,30.36,NE,39,0.0,2.0,78,0.00,,-RA,0.00,VWS V14.01,2013-10-26 03:48:00,
2013-10-25 23:53:00,40.3,34.0,30.35,NE,39,0.0,2.0,78,0.00,,-RA,0.00,VWS V14.01,2013-10-26 03:53:00,
2013-10-25 23:58:00,40.1,33.8,30.35,NE,39,0.0,2.0,78,0.00,,-RA,0.00,VWS V14.01,2013-10-26 03:58:00,